GLWPR LFQQ-LFOB

Flight info

Callsign GLWPR
Flight time N/A
Altitude 3500
Route N
Aircraft BDOG/L-SDLO/C

Departure

Time N/A
Airport Lille Airport (LFQQ)

Arrival

Time 2026-04-22 19:23
Airport Beauvais-Tillé airport (LFOB)
Time Latitude Longitude Altitude Speed Heading
2026-04-22 19:09 49.78364 2.09333 3446 ft 91 kts 118°
2026-04-22 19:09 49.77957 2.10083 3444 ft 98 kts 142°
2026-04-22 19:10 49.77305 2.10455 3448 ft 102 kts 154°
2026-04-22 19:10 49.76588 2.10634 3446 ft 107 kts 165°
2026-04-22 19:10 49.75836 2.10659 3441 ft 109 kts 169°
2026-04-22 19:10 49.75086 2.10645 3433 ft 109 kts 169°
2026-04-22 19:11 49.74330 2.10613 3430 ft 108 kts 171°
2026-04-22 19:11 49.73581 2.10575 3419 ft 107 kts 171°
2026-04-22 19:11 49.72841 2.10535 3423 ft 105 kts 171°
2026-04-22 19:11 49.72094 2.10493 3446 ft 109 kts 171°
2026-04-22 19:12 49.71335 2.10452 3441 ft 109 kts 171°
2026-04-22 19:12 49.70585 2.10465 3440 ft 106 kts 165°
2026-04-22 19:12 49.69875 2.10650 3441 ft 102 kts 154°
2026-04-22 19:12 49.69202 2.10968 3453 ft 101 kts 151°
2026-04-22 19:13 49.68542 2.11319 3462 ft 102 kts 150°
2026-04-22 19:13 49.67871 2.11691 3455 ft 102 kts 149°
2026-04-22 19:13 49.67199 2.12071 3449 ft 102 kts 149°
2026-04-22 19:13 49.66513 2.12468 3294 ft 112 kts 149°
2026-04-22 19:14 49.65756 2.12933 3068 ft 121 kts 149°
2026-04-22 19:14 49.64984 2.13409 2942 ft 118 kts 149°
2026-04-22 19:14 49.64221 2.13872 2815 ft 118 kts 149°
2026-04-22 19:14 49.63457 2.14336 2695 ft 118 kts 149°
2026-04-22 19:15 49.62687 2.14813 2571 ft 120 kts 150°
2026-04-22 19:15 49.61919 2.15302 2422 ft 119 kts 149°
2026-04-22 19:15 49.61152 2.15792 2302 ft 119 kts 149°
2026-04-22 19:15 49.60397 2.16278 2178 ft 119 kts 149°
2026-04-22 19:16 49.59636 2.16769 2092 ft 116 kts 149°
2026-04-22 19:16 49.58895 2.17243 2034 ft 115 kts 149°
2026-04-22 19:16 49.58155 2.17717 1987 ft 114 kts 149°
2026-04-22 19:16 49.57439 2.18174 1989 ft 110 kts 149°
2026-04-22 19:17 49.56739 2.18619 1987 ft 109 kts 149°
2026-04-22 19:17 49.56042 2.19062 1981 ft 108 kts 149°
2026-04-22 19:17 49.55287 2.19282 1945 ft 119 kts 176°
2026-04-22 19:17 49.54418 2.18958 1745 ft 131 kts 187°
2026-04-22 19:18 49.53612 2.18671 1932 ft 112 kts 179°
2026-04-22 19:18 49.52828 2.18425 1950 ft 118 kts 186°
2026-04-22 19:18 49.52042 2.17963 1949 ft 123 kts 195°
2026-04-22 19:18 49.51269 2.17356 1905 ft 132 kts 204°
2026-04-22 19:19 49.50480 2.16559 1788 ft 135 kts 207°
2026-04-22 19:19 49.49709 2.15701 1727 ft 139 kts 210°
2026-04-22 19:19 49.48936 2.14790 1581 ft 141 kts 213°
2026-04-22 19:19 49.48151 2.13846 1464 ft 144 kts 216°
2026-04-22 19:20 49.47795 2.12433 1380 ft 146 kts 271°
2026-04-22 19:20 49.47919 2.10915 1357 ft 144 kts 284°
2026-04-22 19:20 49.48130 2.09448 1415 ft 135 kts 291°
2026-04-22 19:20 49.48404 2.08072 1433 ft 134 kts 294°
2026-04-22 19:21 49.48486 2.06710 1495 ft 128 kts 243°
2026-04-22 19:21 49.47816 2.06148 1423 ft 91 kts 161°
2026-04-22 19:21 49.47404 2.06621 1097 ft 73 kts 121°
2026-04-22 19:21 49.47128 2.07309 911 ft 80 kts 118°
2026-04-22 19:22 49.46829 2.08070 781 ft 85 kts 121°
2026-04-22 19:22 49.46504 2.08807 677 ft 79 kts 124°
2026-04-22 19:22 49.46207 2.09539 522 ft 86 kts 122°
2026-04-22 19:22 49.45868 2.10294 379 ft 83 kts 121°
2026-04-22 19:23 49.45594 2.10918 333 ft 54 kts 120°
2026-04-22 19:23 49.45465 2.11247 333 ft 16 kts 103°
2026-04-22 19:23 49.45490 2.11324 334 ft 2 kts 26°
2026-04-22 19:23 49.45526 2.11378 333 ft 18 kts 44°
2026-04-22 19:24 49.45560 2.11430 331 ft 0 kts 46°
2026-04-22 19:24 49.45569 2.11441 331 ft 3 kts 39°
2026-04-22 19:24 49.45587 2.11462 331 ft 5 kts 39°
2026-04-22 19:25 49.45636 2.11533 330 ft 12 kts 42°
2026-04-22 19:25 49.45720 2.11604 329 ft 14 kts 346°
2026-04-22 19:25 49.45788 2.11506 329 ft 14 kts 306°
2026-04-22 19:25 49.45777 2.11399 328 ft 13 kts 222°
2026-04-22 19:26 49.45698 2.11273 331 ft 15 kts 262°
2026-04-22 19:26 49.45746 2.11130 331 ft 16 kts 304°
2026-04-22 19:26 49.45809 2.11004 331 ft 10 kts 334°
2026-04-22 19:26 49.45832 2.10984 331 ft 4 kts 329°
2026-04-22 19:27 49.45843 2.10974 331 ft 0 kts 320°
2026-04-22 19:27 49.45850 2.10974 328 ft 4 kts 11°
2026-04-22 19:27 49.45863 2.10977 331 ft 0 kts 16°